GFSMW_con_3kmhel_000.txt.gz
Helicity
223 306 278 180 153 105 81 161 217 250 143 185 215 237 261 282 271 207 217 163 137 192 97 80 111 143 190 193 179 155 126 121 114 116 121 119 112 112 147 188 250 305 343
188 195 209 273 293 258 245 228 183 242 316 334 309 212 287 222 160 182 218 212 241 189 96 128 166 208 159 175 157 132 103 109 109 113 112 121 119 144 120 98 131 190 258
211 187 227 250 261 302 268 281 340 374 396 394 390 401 267 229 194 153 149 228 218 147 101 153 170 160 132 106 107 104 109 128 130 143 174 166 174 170 186 160 112 64 73
127 142 200 151 154 185 220 243 230 194 259 287 197 159 127 76 102 206 176 112 124 149 225 179 153 141 151 123 110 143 149 151 151 190 327 383 334 223 178 225 262 196 73
206 254 194 134 120 111 148 172 176 188 150 132 122 49 95 131 129 127 137 166 280 238 164 177 168 177 170 161 138 138 166 231 256 254 258 218 176 146 147 178 235 179 183
136 144 89 79 81 73 115 116 97 86 76 6 39 127 85 55 85 110 243 304 198 167 159 171 158 161 172 143 173 261 288 284 302 253 231 217 169 142 121 159 162 121 39
137 95 135 185 156 103 57 49 95 97 94 155 175 100 78 195 278 281 264 202 157 147 128 111 110 117 144 187 248 264 241 222 157 137 152 153 123 101 78 78 83 68 25
65 102 100 75 102 90 62 104 122 77 110 185 224 250 327 325 313 279 183 148 127 110 69 159 176 223 289 249 282 252 215 185 151 122 117 88 81 101 104 83 82 69 56
103 84 10 72 88 99 93 147 139 130 84 194 307 415 411 332 235 181 123 82 119 163 177 168 177 222 224 239 236 185 172 151 131 106 78 93 102 118 124 95 99 69 62
55 71 36 91 111 168 185 179 209 274 326 342 421 353 178 177 149 124 85 209 208 171 149 183 178 193 206 209 157 137 98 105 110 96 115 102 95 66 77 90 114 113 97
101 56 114 206 206 204 191 171 290 401 387 402 358 175 162 135 126 132 244 255 227 173 164 145 126 118 130 130 110 87 92 115 109 104 97 101 80 105 109 98 100 109 109
250 240 189 167 152 162 192 279 335 268 313 226 193 161 144 165 185 208 215 183 111 80 121 99 97 116 108 106 89 89 72 82 85 105 94 78 53 46 67 94 121 135 128
149 129 109 133 198 196 171 139 173 209 209 164 136 140 174 221 215 166 158 125 105 113 129 144 131 108 99 95 101 113 132 180 148 111 105 112 91 94 90 82 101 129 145
218 215 188 187 179 161 123 165 154 181 139 148 150 132 227 257 175 141 184 196 152 148 137 128 118 118 115 117 176 166 137 112 96 73 65 51 86 72 68 55 93 108 101
223 220 129 147 170 142 143 112 126 100 147 115 128 172 255 299 237 287 236 218 163 150 155 123 103 91 99 198 167 154 122 96 90 82 69 70 64 84 81 78 94 101 68
212 138 143 135 155 159 127 110 109 89 149 167 143 191 220 183 341 258 213 204 172 180 143 122 119 124 169 246 226 181 111 95 85 66 60 82 76 73 86 73 40 70 80
132 101 89 154 216 177 122 125 109 85 105 135 182 278 260 178 186 116 170 223 158 164 135 120 134 209 239 261 235 179 95 63 66 82 93 85 90 97 96 131 167 117 78
102 56 143 160 164 125 109 125 144 123 61 57 111 206 210 171 48 217 216 165 131 156 117 130 186 226 252 244 184 190 121 91 60 78 59 49 47 48 71 52 32 39 43
22 123 104 157 126 126 143 177 148 106 89 52 175 122 175 65 191 203 180 108 140 119 142 178 187 172 158 131 184 146 134 99 75 71 65 53 45 35 52 50 19 9 14
97 111 122 106 125 178 186 165 153 122 74 89 109 187 178 96 164 138 159 158 127 131 170 170 117 110 152 159 181 184 156 108 79 52 29 14 42 105 93 69 27 -2 -0
110 89 98 149 196 184 189 167 133 101 144 140 130 136 91 87 101 127 170 133 146 142 171 146 125 153 142 207 160 158 139 99 67 60 38 34 37 3 -12 -21 -45 -45 -23
131 112 152 182 205 161 144 167 166 168 172 122 127 91 58 61 109 171 161 142 126 204 184 122 148 169 189 190 169 161 69 17 38 32 15 -59 -32 -31 -17 -26 -32 -23 -21
136 150 169 198 138 133 142 192 202 207 176 118 104 86 91 121 167 119 90 109 193 188 127 136 136 153 148 138 166 36 -10 15 40 41 12 35 -20 -9 -13 -14 -8 10 19
162 182 190 141 182 177 166 202 212 211 182 141 105 87 102 117 84 92 97 161 167 136 137 129 141 145 122 133 80 47 46 39 48 34 53 -16 -21 16 60 -27 -3 13 -1
202 186 159 176 197 163 164 206 186 142 127 109 91 95 102 77 71 70 110 136 146 129 127 133 143 143 125 115 60 36 43 43 48 47 8 -18 5 52 2 1 10 12 2
154 160 159 160 152 173 187 147 163 133 138 103 103 83 70 68 61 75 91 124 126 107 117 128 117 124 103 84 -12 -6 -3 5 16 11 -19 -3 18 23 25 -0 14 31 8

GFSMW_con_3kmhel_006.txt.gz
Helicity
491 403 400 363 369 327 308 197 44 91 216 278 294 243 221 174 263 278 223 153 120 127 156 172 229 223 254 229 186 133 126 111 79 59 48 20 21 49 53 18 24 75 131
412 373 382 347 279 269 272 233 200 217 226 206 168 174 182 223 180 154 166 252 230 222 205 242 260 285 236 212 177 144 95 64 28 6 7 66 32 13 27 32 18 -22 -29
178 175 178 174 203 205 107 81 95 137 170 185 158 165 145 131 173 178 171 172 186 159 198 225 217 186 156 165 153 141 132 90 26 64 49 73 62 20 40 77 47 -5 -38
63 47 52 94 99 26 -3 36 46 62 76 69 84 99 110 135 123 121 105 150 170 197 178 162 120 109 117 127 62 54 57 71 114 84 123 111 80 60 36 85 85 27 -11
-9 -11 -16 10 38 54 46 27 23 38 30 21 57 60 70 94 115 163 219 264 213 210 231 122 84 122 133 155 172 141 112 65 63 67 70 73 120 140 85 72 39 16 34
64 60 41 69 49 14 14 35 24 17 -3 27 42 56 76 148 236 239 267 283 280 262 298 159 160 124 97 77 75 95 126 138 146 136 132 107 85 61 76 87 109 79 24
90 91 92 62 44 50 50 54 47 46 84 102 150 207 286 357 379 406 340 215 289 172 236 236 191 133 92 82 95 104 105 89 126 125 123 88 93 108 75 80 86 81 52
95 97 146 112 170 224 223 199 170 178 233 290 360 385 379 338 276 278 286 151 105 210 185 177 165 135 102 112 129 150 163 172 163 143 128 109 91 82 67 58 60 78 70
275 259 248 249 300 257 202 173 155 130 147 173 184 200 208 195 157 47 67 61 184 198 171 197 116 89 93 106 132 185 226 162 91 71 70 76 83 89 62 72 47 60 114
335 329 320 252 249 180 125 94 116 134 104 146 192 184 122 90 71 118 141 221 248 240 227 154 108 63 11 47 90 125 147 98 70 62 66 67 62 70 73 62 48 29 9
335 320 261 220 201 132 90 73 139 124 86 130 156 110 97 103 129 185 250 257 283 155 210 238 134 35 61 93 84 94 105 104 89 71 63 45 37 39 29 17 19 30 20
333 237 190 161 97 122 176 191 196 179 159 110 93 94 99 108 164 241 272 228 198 232 282 271 94 75 58 77 100 139 156 137 130 105 83 54 31 7 28 38 45 49 53
223 185 130 90 164 238 226 199 190 152 97 62 54 48 85 143 185 217 243 322 349 470 209 33 78 65 79 98 137 158 162 163 137 114 96 72 51 39 40 49 65 64 76
221 179 140 122 103 190 234 222 174 107 66 61 47 48 43 67 132 251 298 315 199 98 66 70 70 91 111 141 172 164 169 161 142 101 83 75 61 57 65 82 91 98 108
218 120 82 106 172 255 235 186 128 98 79 72 52 42 58 93 100 127 174 148 58 74 75 103 110 123 130 170 176 173 139 119 109 121 119 100 73 55 92 143 127 120 115
77 -2 28 143 218 202 167 128 115 93 69 67 76 77 81 100 102 107 108 86 100 106 153 94 104 100 154 185 128 122 124 132 127 124 118 111 73 84 88 96 115 99 88
-54 -19 90 150 165 154 146 135 101 81 78 74 61 71 76 82 78 77 72 94 83 78 74 87 128 159 146 98 76 87 138 146 140 136 108 87 84 64 82 60 64 71 60
-49 74 144 154 144 157 157 132 98 88 82 79 81 88 88 79 87 117 126 104 74 76 91 139 182 143 110 58 81 157 165 153 153 108 85 81 64 65 58 55 62 55 54
117 108 116 146 173 157 118 121 153 137 122 105 102 94 90 89 117 108 137 93 96 113 149 171 165 138 105 108 119 172 172 154 109 76 77 78 75 44 47 81 60 45 38
110 136 136 164 161 164 179 197 177 171 131 108 95 97 83 99 112 136 107 90 106 142 167 182 142 130 83 97 125 141 137 122 82 78 78 53 45 16 3 39 40 8 -23
194 201 225 217 191 176 189 202 199 174 130 122 108 113 113 104 105 104 116 119 133 180 141 113 79 74 52 78 110 111 140 121 81 89 90 84 30 9 -20 -12 7 -15 -24
260 256 231 204 176 193 203 197 178 148 146 128 104 105 115 111 109 100 112 135 127 110 82 74 65 44 43 96 70 77 100 83 92 90 96 74 9 10 19 24 -4 -1 -29
228 201 191 177 174 166 173 179 155 137 147 131 108 106 105 103 103 107 108 110 99 73 43 53 57 53 59 60 33 32 57 55 74 80 57 28 20 22 43 18 16 13 7
190 151 153 153 146 145 148 150 139 141 164 157 125 114 105 85 84 89 103 99 77 51 44 51 68 64 69 52 42 45 64 35 38 53 70 54 40 57 59 34 38 25 22
124 129 148 147 144 145 139 124 133 126 155 162 139 107 91 85 81 103 106 77 49 46 53 68 76 91 74 52 16 37 53 28 8 26 45 39 42 30 11 7 21 20 28
136 150 138 145 152 143 113 101 134 156 158 131 108 102 89 76 79 88 89 55 35 43 59 90 93 66 57 22 7 49 52 37 20 5 3 -6 -32 -37 -14 -16 7 10 22

GFSMW_con_3kmhel_009.txt.gz
Helicity
323 312 336 239 300 308 281 230 197 165 177 205 230 175 128 181 204 245 234 235 165 123 138 136 185 184 205 193 189 167 155 129 111 83 93 48 14 78 42 39 51 61 74
411 340 267 246 274 242 226 179 175 192 163 149 133 118 104 137 185 177 136 104 110 119 149 151 121 141 172 242 220 155 109 69 83 46 43 73 78 82 86 50 36 37 23
136 131 131 137 164 179 149 97 50 46 70 70 64 84 95 101 109 130 131 143 148 171 163 155 151 154 167 187 148 132 111 66 55 93 124 151 141 76 50 91 43 17 1
2 -38 8 72 90 62 19 42 63 67 69 55 55 59 60 72 80 87 90 133 167 184 183 240 184 250 148 79 75 116 114 122 163 83 156 118 101 88 63 127 84 6 -13
-24 -38 8 -4 17 23 48 58 72 76 33 40 44 34 40 101 169 203 249 259 259 301 318 237 187 171 107 110 73 64 86 74 73 65 41 49 90 103 130 81 62 67 37
-85 -57 -8 7 30 54 70 77 83 78 76 84 110 144 183 218 264 276 288 268 227 216 180 178 180 74 170 91 67 110 128 112 115 123 156 195 201 223 167 151 118 32 -17
-5 11 135 160 157 138 121 136 139 139 144 186 231 268 261 216 189 200 260 231 212 253 173 219 176 189 159 144 138 125 104 98 102 114 165 220 221 172 150 130 101 53 40
180 289 255 238 214 191 190 177 161 167 175 180 185 213 206 221 241 228 227 187 169 158 212 170 235 345 71 126 139 124 93 106 137 144 170 203 170 163 153 139 140 114 81
326 404 364 293 254 213 188 181 183 202 210 181 199 195 172 185 199 160 143 121 156 167 206 328 351 177 52 79 72 75 22 80 126 119 129 150 153 149 135 124 106 101 89
427 398 352 294 251 220 200 205 235 269 204 170 147 145 165 145 129 138 159 187 181 205 284 226 125 68 226 79 37 29 55 93 118 107 102 100 103 98 96 97 94 99 91
373 398 377 297 227 173 201 210 253 224 177 162 144 147 136 123 119 142 162 177 229 273 231 269 254 151 81 68 36 33 67 111 111 146 142 115 104 102 96 91 91 96 120
435 392 308 220 158 167 127 150 189 170 121 96 84 78 62 66 82 94 148 250 278 314 279 228 97 54 78 53 58 60 113 125 147 154 137 116 109 109 96 88 75 88 110
360 291 214 165 137 94 153 192 158 115 84 87 75 54 43 58 83 96 167 247 212 164 164 131 102 84 87 82 90 115 147 178 165 136 139 132 131 127 111 98 96 100 99
274 220 174 130 97 110 189 138 112 83 74 73 77 66 52 65 81 91 111 154 180 181 160 131 121 115 95 100 141 194 194 148 144 158 169 167 164 147 130 106 107 90 118
230 225 214 104 105 154 118 112 84 74 67 91 57 48 45 50 78 101 118 137 128 126 109 135 136 94 94 121 161 154 144 147 159 159 159 159 146 95 100 113 107 96 109
231 173 107 127 134 87 93 94 71 77 87 73 58 51 68 81 99 106 104 98 112 105 117 100 93 50 128 121 122 138 150 153 147 155 162 155 103 99 73 66 63 72 96
139 113 92 53 64 90 89 85 93 116 112 96 78 84 102 103 108 110 105 109 114 145 84 115 120 137 124 125 121 117 152 146 159 167 150 121 122 94 104 74 64 54 47
106 57 34 54 77 103 117 119 139 144 147 119 118 126 125 130 117 115 115 120 113 88 80 137 163 147 147 156 139 148 141 129 146 144 117 110 109 98 75 77 79 81 59
72 93 106 101 126 138 138 159 169 168 160 164 158 150 135 141 130 117 109 119 110 107 144 166 160 152 112 104 106 99 106 115 122 116 91 89 82 52 34 68 64 54 35
202 152 147 182 192 168 172 176 174 190 187 179 163 143 138 134 116 104 92 112 132 148 160 163 142 122 96 80 82 80 108 119 123 109 73 57 55 31 30 58 55 41 7
257 229 235 204 161 170 211 192 182 194 194 175 149 152 125 119 107 111 108 107 134 169 139 113 115 108 86 76 72 69 87 103 113 101 73 84 35 33 36 47 55 28 -24
263 243 223 196 188 190 186 184 198 190 167 155 161 155 131 130 122 112 102 117 135 145 132 119 95 86 75 71 58 60 49 63 115 91 74 78 29 32 34 45 29 13 2
244 216 197 179 148 159 172 192 184 167 152 153 169 168 153 131 112 109 119 126 130 121 99 85 86 75 72 59 50 43 41 59 77 75 43 37 34 44 53 31 26 24 12
219 178 162 139 141 155 180 184 161 136 132 130 144 166 149 109 101 104 120 127 119 102 89 87 77 81 76 68 64 61 52 53 48 52 37 37 42 59 68 78 61 40 24
162 142 128 139 143 158 165 144 130 118 125 124 126 135 135 110 98 86 92 88 83 99 96 85 91 112 84 78 53 62 65 53 50 65 28 15 17 37 40 63 62 12 -5
139 140 145 145 154 163 156 132 121 113 123 111 98 118 125 119 104 90 81 56 53 66 68 77 102 90 72 58 37 59 62 46 49 57 45 1 -2 -2 21 -3 -43 -38 -24

GFSMW_con_3kmhel_012.txt.gz
Helicity
204 194 198 193 273 314 364 285 240 131 105 155 141 116 79 67 79 97 131 161 135 143 165 178 175 161 169 155 169 139 186 157 151 113 103 58 103 162 179 147 94 82 72
235 227 202 169 159 135 144 87 68 50 64 44 36 26 39 45 94 125 166 180 174 153 154 155 164 163 139 180 204 153 120 93 89 96 75 132 131 143 150 118 92 62 22
91 76 80 63 34 40 -6 21 50 54 65 88 81 77 78 105 125 144 158 182 205 207 197 197 183 111 115 141 109 90 123 131 63 115 124 183 195 180 127 150 135 96 28
71 41 62 56 57 78 85 87 98 107 95 66 73 85 91 112 137 158 179 220 212 187 164 165 185 157 174 212 154 132 117 83 173 88 132 129 144 171 142 128 136 83 108
-9 66 32 26 39 107 108 74 90 93 88 102 111 119 148 171 189 209 203 158 172 177 192 220 184 191 203 219 211 174 164 83 75 73 102 101 106 100 158 145 86 73 35
10 192 104 42 72 110 115 104 135 124 113 137 156 179 207 203 228 232 236 252 253 203 179 178 199 235 262 219 165 176 209 100 125 124 124 112 99 95 69 92 111 93 68
145 117 95 112 156 158 159 163 169 186 188 210 216 201 190 199 208 224 251 256 236 207 174 234 302 343 353 261 316 287 62 136 160 103 97 97 122 129 128 121 115 88 79
132 179 184 219 271 279 246 212 202 190 168 182 203 189 175 178 185 206 207 185 180 157 196 242 313 326 214 110 64 -7 44 84 73 49 86 120 125 118 115 109 101 73 83
200 267 245 292 295 303 256 208 158 139 142 148 171 172 151 160 156 149 138 156 160 206 254 351 320 133 162 153 115 95 66 87 85 76 107 115 102 119 116 124 126 132 87
287 285 318 355 344 325 243 223 115 109 104 138 168 142 135 139 131 108 108 119 147 212 262 288 221 209 111 45 65 98 69 74 101 116 112 141 141 125 115 126 125 138 148
317 392 427 419 338 285 220 103 196 141 143 165 127 125 108 97 85 90 86 95 119 162 239 242 215 162 134 117 111 89 85 98 112 141 153 127 123 129 142 139 143 139 138
415 441 395 335 284 187 119 159 82 72 145 118 90 82 81 70 59 59 68 80 108 157 201 232 200 165 124 138 127 103 102 126 132 135 139 137 147 159 170 176 156 144 125
424 383 301 237 197 192 175 60 71 130 97 101 81 62 43 48 48 57 73 93 128 176 180 178 153 140 140 160 114 115 141 142 129 132 154 163 177 187 186 171 147 120 104
337 272 230 184 199 196 52 47 110 105 89 87 74 70 62 44 47 72 90 110 129 145 148 135 122 129 176 134 109 134 121 125 142 154 176 188 189 183 169 138 122 117 118
283 250 237 221 158 64 87 100 102 88 100 96 93 80 67 62 79 95 104 116 126 125 124 113 133 115 132 109 123 113 132 136 145 156 160 165 163 123 118 136 136 129 133
243 232 234 138 67 67 103 102 85 95 123 112 103 109 111 107 113 128 129 134 124 116 108 148 108 91 127 152 126 137 124 139 138 133 135 151 135 109 84 75 64 76 93
202 191 158 71 94 88 104 99 110 124 137 150 148 150 142 143 139 141 133 133 125 113 89 90 102 158 166 146 152 159 140 128 115 120 131 137 115 81 107 80 53 57 54
176 141 126 108 96 117 139 140 138 142 171 175 170 168 173 165 155 143 126 119 121 110 113 133 156 161 151 156 141 115 104 102 94 96 117 133 90 88 68 92 90 72 63
141 176 142 124 137 140 170 160 149 175 189 170 187 184 180 169 152 138 116 105 104 118 132 141 160 153 149 131 101 99 89 80 76 81 121 121 79 54 35 70 73 77 68
244 193 179 195 185 195 190 211 195 176 169 184 183 178 178 169 158 135 114 119 113 116 143 156 152 138 118 111 96 89 84 79 85 97 104 86 60 37 39 67 79 92 66
307 275 250 230 200 218 213 177 167 171 174 184 180 171 171 183 171 147 124 103 117 154 154 157 129 129 121 97 81 72 76 79 86 91 98 96 32 28 29 41 80 74 52
322 283 251 205 181 173 178 168 162 160 177 174 162 152 164 195 175 135 105 108 133 146 142 145 128 116 104 79 68 61 62 64 95 82 84 87 21 26 32 46 31 45 45
297 230 185 165 155 157 157 164 153 172 165 163 148 132 136 159 150 109 87 119 132 132 117 118 114 100 96 86 57 60 65 71 82 80 57 45 28 26 42 35 40 62 65
226 142 158 152 142 134 130 154 167 168 161 153 134 121 134 144 142 118 100 109 114 116 111 120 111 100 97 83 80 87 82 70 75 67 65 58 32 17 37 57 61 77 69
134 144 149 138 119 120 135 165 166 171 154 144 127 116 120 136 136 119 104 99 100 112 113 103 110 117 94 94 100 79 92 77 70 72 64 60 43 10 6 25 53 64 64
107 138 130 124 114 133 147 143 157 165 140 122 127 115 114 133 144 129 104 87 76 55 62 80 117 108 103 100 86 69 80 67 71 73 63 58 49 11 -6 -9 -10 27 -48